User: anonymous
Location: Melbourne
(37.8170°S, 144.9670°E)
Time: 09:27:15
(UTC+10:00)
Language:

Explorer 11/Cluster Stage 4 - Orbit

View from above orbital plane
View from above orbital plane
View from above satellite
View from above satellite

Ground track
Ground track

The orbit data is extracted from the following two-line orbital elements,

1 00107U 61013A   14244.14451142  .00001197  00000-0  14381-3 0  1200
2 00107 028.7914 236.1607 0562256 208.8615 229.0178 14.05096856667262
Epoch (UTC): 01 September 2014 03:28:05
Eccentricity: 0.0562256
inclination: 28.7914°
perigee height: 468 km
apogee height: 1284 km
right ascension of ascending node: 236.1607°
argument of perigee: 208.8615°
revolutions per day: 14.05096856
mean anomaly at epoch: 229.0178°
orbit number at epoch: 66726

The dashed part of the orbit path shows where the satellite is in the earth's shadow,  

DLR